Regional Weather Roundup
Issued by NWS Mt. Holly, NJ

Home | Current Version | Previous Version | Text Only | Print | Product List | Glossary On
Versions: 1 2 3 4 5 6 7 8 9 10 11 12 13 14 15 16 17 18 19 20 21 22 23 24 25 26 27 28 29 30 31 32 33 34 35 36 37 38 39 40 41 42 43 44 45 46 47 48 49 50
000
ASUS41 KPHI 050212
RWRPHI

REGIONAL WEATHER ROUNDUP
NATIONAL WEATHER SERVICE MOUNT HOLLY NJ
1000 PM EDT SAT JUL 04 2015

NOTE:  "FAIR" INDICATES FEW OR NO CLOUDS BELOW 12,000 FEET WITH NO
SIGNIFICANT WEATHER AND/OR OBSTRUCTIONS TO VISIBILITY.

 * = STATION DOES NOT REPORT PRECIPITATION (E.G. RAIN, SNOW, ETC.)
        OR FOG.

NJZ015>026-050300-
SOUTHERN NEW JERSEY

CITY           SKY/WX    TMP DP  RH WIND       PRES   REMARKS
POMONA         CLOUDY    70  60  70 E5        30.01R
RIO GRANDE*    CLOUDY    72  61  68 E5        30.01R
MILLVILLE      CLOUDY    71  62  73 E6        30.01R
WRIGHTSTOWN    CLOUDY    70  58  66 S3        29.98R
MOUNT HOLLY    CLOUDY    68  59  73 CALM      30.00R
TRENTON        CLOUDY    69  56  62 S6        30.00R

$$
NJZ001>014-050300-
NORTHERN NEW JERSEY

CITY           SKY/WX    TMP DP  RH WIND       PRES   REMARKS
SUSSEX         CLEAR     62  59  90 CALM      30.02R
ANDOVER*         N/A     61  60  97 CALM      30.02R
MORRISTOWN     PTCLDY    70  61  73 NW6       30.01R
NEWARK         PTCLDY    73  56  54 NW6       29.99R
TETERBORO      PTCLDY    72  57  59 CALM      29.99R
CALDWELL       CLEAR     68  58  70 CALM      30.01R
SOMERVILLE     CLOUDY    68  60  75 NW3       29.99R
ALLAIRE*       CLOUDY    70  54  56 SE3       30.00S
TOMS RIVER*    CLOUDY    70  61  73 CALM      30.01R

$$
PAZ043-044-047-054-055-060>062-066>071-050300-
EASTERN PENNSYLVANIA

CITY           SKY/WX    TMP DP  RH WIND       PRES   REMARKS
PHILADELPHIA   CLOUDY    71  58  63 E6        30.01R
NORTH PHILA    CLOUDY    69  56  62 NE5       30.02R
BLUE BELL      CLOUDY    68  63  83 CALM      30.01R
DOYLESTOWN     MOCLDY    65  57  75 CALM      30.01R
QUAKERTOWN*    MOCLDY    66  63  88 CALM      30.04R
POTTSTOWN      CLOUDY    66  66 100 CALM      30.03R
LANCASTER      CLOUDY    67  63  87 CALM      30.02R
COATESVILLE    CLOUDY    66  66 100 CALM      30.03R FOG
READING        CLOUDY    68  64  87 CALM      30.02R
ALLENTOWN      CLOUDY    68  64  87 CALM      30.02R
MOUNT POCONO     N/A     59  57  93 CALM      30.06R
HAZLETON       CLOUDY    63  61  94 CALM      30.08R
WILKES BARRE   CLOUDY    65  62  90 CALM      30.03R

$$
DEZALL-MDZ008-012-015-019-020-050300-
DELAWARE AND EASTERN MARYLAND

CITY           SKY/WX    TMP DP  RH WIND       PRES   REMARKS
WILMINGTON     CLOUDY    70  62  76 NE8       30.01R
DOVER          CLOUDY    72  65  77 SE7       29.98R
GEORGETOWN     CLOUDY    70  68  93 NE5       30.00R
EASTON         PTCLDY    73  73 100 CALM      30.02
PATUXENT       CLOUDY    73  71  93 CALM      29.98R
OCEAN CITY     RAIN      72  70  93 S6        29.99R FOG
WALLOPS ISLAND LGT RAIN  73  73 100 E8        29.97F FOG
SALISBURY      RAIN      70  69  97 E3        29.99R FOG

$$
PAZ001-021-NYZ056-072-MDZ011-DCZ001-050300-
OTHER NEARBY LOCATIONS

CITY           SKY/WX    TMP DP  RH WIND       PRES   REMARKS
HARRISBURG     CLOUDY    68  64  87 S3        30.02R
WILLIAMSPORT   PTCLDY    65  62  90 NW3       30.00R FOG
BINGHAMTON     CLEAR     60  58  92 S6        30.03R
NEW YORK CITY  MOCLDY    71  53  52 CALM      30.03R
BALTIMORE      CLOUDY    72  68  87 N6        30.00R
WASHINGTON DC  CLOUDY    76  71  85 NE5       30.00R HAZE

$$


USA.gov is the U.S. government's official web portal to all federal, state and local government web resources and services.